Location: Altoona
(40.5167°N, 78.4000°W)
Time: 13:32:16
(UTC-05:00)

Cosmos 1709 Rocket - Pass Details

Date: 21 August 2017
Orbit: 947 x 1003 km, 82.9° (Epoch: 24 November)

Event Time Altitude Azimuth Distance (km) Brightness Sun altitude
Exits shadow 23:10:55 52° 49° (NE) 1,186 4.3 -30.2°
Drops below altitude 10° 23:15:54 10° 14° (NNE) 2,729 6.8 -30.8°
Sets 23:18:27 0° 11° (NNE) 3,689 7.6 -31.0°
